Simultaneous Nadir Overpasses (SNOs) Predictions

Prediction of SNOs between METOP-A and NOAA-19 Satellite Orbit:

Table of predicted SNOs for the next 14.0 days since TLE Epoch: 1/30/2021
Index Date (METOP-A) Time (METOP-A) Lat,Lon (METOP-A) SZA (METOP-A ) Date (NOAA-19) Time (NOAA-19) Lat,Lon (NOAA-19) SZA (NOAA-19 ) Distance(km) Time Diff (sec)
1 01/31/2021 20:28:14 80.82,-115.09 98.01 01/31/2021 20:27:05 80.83,-115.10 98.01 1.51 69
2 01/31/2021 21:18:55 -80.83, 52.32 82.00 01/31/2021 21:18:00 -80.83, 52.25 82.00 1.49 55
3 01/31/2021 22:09:35 80.83,-140.23 98.00 01/31/2021 22:09:04 80.83,-140.06 98.00 2.95 31
4 01/31/2021 23:00:17 -80.82, 26.84 82.03 01/31/2021 23:00:00 -80.83, 26.91 82.02 2.15 17
5 01/31/2021 23:50:57 80.83,-165.71 97.97 01/31/2021 23:51:05 80.83,-165.77 97.98 1.31 8
6 02/01/2021 00:41:38 -80.83, 1.70 82.04 02/01/2021 00:42:00 -80.83, 1.58 82.04 2.13 22
7 02/01/2021 01:32:19 80.82, 168.81 97.94 02/01/2021 01:33:05 80.83, 168.89 97.96 2.12 46
8 02/01/2021 02:23:00 -80.82, -23.79 82.07 02/01/2021 02:24:00 -80.83, -23.76 82.06 0.94 60
9 02/11/2021 22:32:18 -80.84, 33.92 85.41 02/11/2021 22:31:05 -80.84, 33.89 85.42 0.64 73
10 02/11/2021 23:22:58 80.85,-158.67 94.59 02/11/2021 23:22:08 80.84,-158.80 94.57 2.45 50
11 02/12/2021 00:13:40 -80.83, 8.44 85.45 02/12/2021 00:13:05 -80.84, 8.55 85.44 2.15 35
12 02/12/2021 01:04:20 80.84, 175.84 94.55 02/12/2021 01:04:08 80.84, 175.86 94.55 0.28 12
13 02/12/2021 01:55:01 -80.84, -16.70 85.45 02/12/2021 01:55:05 -80.84, -16.79 85.46 1.70 4
14 02/12/2021 02:45:42 80.83, 150.36 94.52 02/12/2021 02:46:08 80.84, 150.51 94.53 2.99 26
15 02/12/2021 03:36:23 -80.83, -42.19 85.49 02/12/2021 03:37:05 -80.83, -42.12 85.48 1.18 42



Historial Predications of SNOs between METOP-A and NOAA-19
